EW5231 Weather Reports


Display with metric or nautical units.
time (UTC)temp
F
wind
direction
speed
MPH
gust
MPH
rain 1hr
in
rain 24hr
in
rain mn
in
humidity
%
barometer
mb
20260507140058 43 327 5.0 11.0 0.00 0.78 0.01 65 1007.5
20260507134600 43 299 5.0 11.0 0.00 0.78 0.01 72 1007.5
20260507133052 42 301 5.0 11.0 0.00 0.78 0.01 82 1007.5
20260507131546 41 311 5.0 9.0 0.00 0.78 0.01 86 1007.4
20260507130057 39 271 4.0 10.0 0.00 0.82 0.01 91 1007.5
20260507124554 39 294 7.0 17.0 0.00 0.82 0.01 89 1007.6
20260507123012 40 293 4.0 9.0 0.00 0.82 0.01 92 1007.3
20260507121508 40 281 2.0 11.0 0.00 0.82 0.01 94 1007.1
20260507120005 40 277 3.0 8.0 0.00 0.82 0.01 94 1007.2
20260507114503 40 298 2.0 4.0 0.00 0.82 0.01 97 1006.9
20260507113100 39 257 0.0 2.0 0.00 0.82 0.01 97 1006.7
20260507111558 38 176 0.0 1.0 0.00 0.82 0.01 97 1006.8
20260507110055 38 178 0.0 3.0 0.00 0.82 0.01 97 1006.8
20260507104555 37 138 0.0 0.0 0.00 0.82 0.01 97 1006.9
20260507103052 37 138 0.0 2.0 0.00 0.82 0.01 97 1006.9
20260507101559 36 138 1.0 2.0 0.00 0.82 0.01 97 1006.8
20260507100023 36 138 0.0 2.0 0.00 0.83 0.01 96 1006.7
20260507094519 36 315 1.0 2.0 0.00 0.83 0.01 96 1006.6
20260507093014 36 315 1.0 2.0 0.00 0.83 0.01 96 1006.8
20260507091513 37 257 0.0 0.0 0.00 0.83 0.01 97 1006.8
20260507090011 37 257 0.0 2.0 0.00 0.83 0.01 97 1006.7
20260507084511 37 257 1.0 2.0 0.00 0.83 0.01 97 1006.9
20260507083012 37 5 0.0 1.0 0.01 0.83 0.01 97 1007.0
20260507081508 37 5 0.0 2.0 0.01 0.83 0.01 97 1007.1
20260507080005 37 5 0.0 2.0 0.01 0.83 0.01 96 1006.9
20260507074504 37 5 1.0 2.0 0.01 0.83 0.01 96 1006.8
20260507073102 37 5 1.0 2.0 0.00 0.82 0.00 96 1006.7
20260507071555 37 5 0.0 2.0 0.00 0.82 0.00 96 1006.4
20260507070052 38 330 0.0 1.0 0.00 0.82 0.82 97 1006.3
20260507064552 38 330 0.0 2.0 0.00 0.82 0.82 97 1006.5
20260507063028 38 330 0.0 1.0 0.00 0.82 0.82 96 1006.6
20260507061521 38 360 0.0 3.0 0.00 0.82 0.82 97 1006.5
20260507060021 38 315 3.0 7.0 0.00 0.94 0.82 96 1006.6
20260507054520 38 300 1.0 4.0 0.00 0.94 0.82 96 1006.9
20260507053017 38 315 2.0 5.0 0.00 0.94 0.82 97 1006.8
20260507051517 38 321 3.0 8.0 0.00 0.94 0.82 97 1006.8
20260507050011 38 247 1.0 8.0 0.00 0.98 0.82 97 1006.8
20260507044510 38 323 3.0 6.0 0.00 0.98 0.82 97 1006.7
20260507043009 38 328 2.0 6.0 0.00 0.98 0.82 97 1006.8
20260507041522 38 289 3.0 8.0 0.00 0.98 0.82 97 1006.9
20260507040005 39 355 1.0 6.0 0.00 0.98 0.82 97 1006.6
20260507034504 39 52 3.0 6.0 0.00 0.98 0.82 97 1006.5
20260507033003 39 333 2.0 4.0 0.00 0.98 0.82 97 1006.8
20260507031502 39 351 1.0 4.0 0.00 0.98 0.82 97 1006.6
20260507030100 39 292 3.0 8.0 0.01 0.98 0.82 97 1006.7
20260507024616 39 317 3.0 5.0 0.01 0.98 0.82 97 1006.9
20260507023055 39 293 1.0 8.0 0.03 0.98 0.82 97 1007.0
20260507021554 39 339 3.0 6.0 0.05 0.98 0.82 97 1006.9
20260507020107 40 342 3.0 6.0 0.04 0.97 0.81 97 1006.8
20260507014601 40 308 4.0 10.0 0.04 0.97 0.81 97 1007.0
20260507013050 40 321 2.0 8.0 0.03 0.95 0.79 97 1006.9
20260507011545 40 300 2.0 6.0 0.02 0.93 0.77 97 1006.8
20260507010045 40 313 3.0 6.0 0.02 0.93 0.77 97 1006.5
20260507004544 40 296 2.0 5.0 0.03 0.93 0.77 97 1006.2
20260507003043 40 292 1.0 5.0 0.04 0.92 0.76 97 1006.0
20260507001544 40 309 3.0 8.0 0.04 0.91 0.75 97 1005.9
20260507000039 40 309 2.0 8.0 0.05 0.91 0.75 97 1005.1
20260506234539 40 299 2.0 5.0 0.04 0.90 0.74 97 1005.1
20260506233135 40 325 3.0 6.0 0.04 0.89 0.73 96 1005.0
20260506231544 41 5 3.0 9.0 0.02 0.87 0.71 97 1004.9
20260506230041 41 313 3.0 9.0 0.01 0.86 0.70 96 1004.7
20260506224529 41 286 6.0 12.0 0.01 0.86 0.70 96 1004.7
20260506223042 41 335 3.0 8.0 0.00 0.85 0.69 97 1004.5
20260506221525 41 350 2.0 8.0 0.00 0.85 0.69 96 1004.5
20260506220026 41 326 3.0 9.0 0.00 0.85 0.69 96 1004.4
20260506214522 42 347 2.0 4.0 0.00 0.85 0.69 96 1004.3
20260506213021 41 360 2.0 5.0 0.01 0.85 0.69 96 1004.3
20260506211519 42 22 0.0 4.0 0.03 0.85 0.69 97 1004.3
20260506210022 42 299 1.0 6.0 0.04 0.90 0.69 96 1004.3
20260506204517 42 308 2.0 8.0 0.05 0.90 0.69 96 1004.2
20260506203024 42 306 2.0 8.0 0.05 0.89 0.68 96 1004.3
20260506201529 42 9 3.0 7.0 0.05 0.87 0.66 96 1004.0
20260506200014 42 294 1.0 3.0 0.04 0.89 0.65 96 1003.9
20260506194510 41 259 4.0 9.0 0.03 0.88 0.64 96 1004.0
20260506193009 42 307 4.0 11.0 0.02 0.87 0.63 96 1004.1
20260506191507 42 360 3.0 7.0 0.00 0.85 0.61 96 1004.1
20260506190006 43 328 3.0 9.0 0.02 0.85 0.61 96 1003.9
20260506184534 44 319 0.0 4.0 0.10 0.85 0.61 96 1003.8
20260506183042 44 328 1.0 5.0 0.13 0.85 0.61 96 1004.0
20260506181530 43 296 1.0 5.0 0.15 0.84 0.60 96 1004.1
20260506180030 43 264 2.0 10.0 0.27 0.83 0.59 96 1004.6
20260506174528 43 284 4.0 7.0 0.23 0.75 0.51 96 1004.4
20260506173028 43 21 0.0 8.0 0.24 0.72 0.48 96 1004.5
20260506171529 43 5 1.0 10.0 0.24 0.69 0.45 96 1004.5
20260506170023 44 308 4.0 11.0 0.12 0.55 0.31 95 1004.2
20260506164518 45 38 0.0 6.0 0.09 0.51 0.27 96 1004.1
20260506163015 46 312 1.0 4.0 0.06 0.47 0.23 96 1004.2
20260506161544 46 326 0.0 4.0 0.06 0.45 0.21 96 1004.3
20260506160043 47 300 4.0 8.0 0.06 0.43 0.19 95 1004.5
20260506154520 52 146 3.0 6.0 0.05 0.42 0.18 97 1004.5
20260506153018 52 165 5.0 12.0 0.05 0.41 0.17 97 1004.4
20260506151514 50 185 4.0 10.0 0.04 0.39 0.15 97 1004.8
20260506150014 47 123 0.0 1.0 0.03 0.37 0.13 96 1005.0
20260506144514 47 297 2.0 5.0 0.03 0.36 0.12 96 1005.2
20260506143025 48 180 0.0 5.0 0.04 0.36 0.12 96 1004.9
20260506141511 48 158 1.0 5.0 0.04 0.35 0.11 97 1004.9